Location: Dos Palmas
(32.4468°N, 116.8732°W)
Time: 01:02:05
(UTC+00:00)

USA 215 - Pass Details

Date: 20 June 2021
Orbit: 1100 x 1107 km, 123.0° (Epoch: 22 June)

Event Time Altitude Azimuth Distance (km) Brightness Sun altitude
Rises 06:08:37 0° 40° (NE) 3,918 6.4 -29.2°
Reaches altitude 10° 06:11:06 10° 39° (NE) 2,958 5.8 -29.4°
Maximum altitude 06:17:37 77° 315° (NW) 1,128 3.3 -30.0°
Enters shadow 06:20:11 40° 237° (WSW) 1,560 3.9 -30.2°
